Wind_Speed
27 26 25 26 25 25 26 25 23 22 22 22 22 23 23 25 29 31 33 36 39 42 45 47 48 50 52 53 55 58 60 60 60 59 58 58 56 53 51 50 50 49 49 48
27 26 26 27 26 26 26 25 24 23 26 27 27 27 28 31 34 38 42 44 46 49 51 52 53 54 56 58 59 60 62 63 62 60 59 57 54 51 50 50 51 50 49 47
26 26 27 27 27 27 27 26 26 26 28 30 34 35 35 41 45 48 51 53 54 55 56 57 58 59 60 60 60 61 63 62 61 58 57 56 54 52 52 52 52 51 49 45
26 26 25 25 25 24 24 26 28 31 34 36 39 44 47 51 54 56 58 59 61 60 60 61 62 63 62 62 62 62 63 62 61 58 55 55 54 53 53 52 50 49 48 46
23 22 21 21 22 24 26 30 34 37 41 45 48 52 55 57 60 62 64 64 64 63 64 64 64 62 61 61 60 61 62 62 60 58 56 54 51 50 49 47 46 46 46 45
18 19 19 21 24 28 32 37 41 45 49 52 55 57 60 63 65 66 67 67 67 67 67 66 64 62 60 58 58 59 60 60 60 58 56 52 49 48 46 44 44 45 45 43
20 21 23 26 31 35 40 45 51 54 56 58 61 65 67 68 69 69 70 69 69 68 66 65 64 61 57 55 55 56 57 57 57 56 55 52 50 49 48 45 46 47 46 43
26 28 31 34 39 43 48 52 56 59 62 64 67 70 69 70 69 69 68 68 69 69 68 65 61 57 54 53 53 54 54 54 54 54 54 53 53 52 51 49 48 48 45 42
32 33 35 39 44 48 53 57 60 63 67 69 69 71 71 71 70 68 70 72 72 71 69 64 57 53 52 51 51 52 53 53 52 53 54 56 55 54 53 49 45 41 39 38
34 35 39 44 49 53 57 60 61 63 67 71 72 70 72 72 72 74 75 75 73 70 66 62 56 51 49 49 50 52 53 53 52 53 54 56 56 54 52 47 42 38 36 36
40 42 44 48 53 57 58 59 62 66 67 69 71 69 72 73 75 77 77 76 73 69 64 59 54 50 48 48 49 52 54 54 53 54 54 53 53 53 51 46 41 38 37 37
43 45 48 52 56 57 59 62 63 64 66 69 74 77 73 75 76 77 77 75 71 65 58 53 49 47 45 46 48 50 52 52 52 53 51 49 51 54 52 48 42 39 38 38
46 49 52 54 56 59 60 61 63 66 71 74 78 82 77 75 74 73 72 68 63 58 54 50 48 47 46 47 47 47 49 48 48 48 47 45 48 49 47 43 40 39 39 39
51 53 55 57 57 59 61 64 66 70 75 79 79 78 74 70 70 68 63 59 55 53 52 52 51 49 50 51 47 43 42 42 42 42 40 42 44 43 41 38 36 37 38 38
54 55 56 57 59 62 66 69 71 73 75 76 75 72 67 66 66 64 60 56 52 49 49 49 49 45 42 45 46 43 38 37 37 36 38 40 39 36 35 36 36 36 36 36
54 55 56 57 60 64 69 72 72 73 73 70 68 65 61 61 61 60 58 55 51 48 47 46 44 38 33 34 37 38 34 33 34 36 36 34 30 29 32 34 36 37 36 36
53 56 59 61 65 70 76 72 75 75 70 65 64 63 61 59 59 58 56 52 49 46 44 40 35 32 28 26 28 31 32 33 34 34 31 28 28 28 30 32 34 35 36 37
55 59 64 68 72 78 74 71 73 71 65 56 56 56 55 56 57 55 54 54 50 46 42 37 32 28 24 21 20 22 25 29 32 32 30 27 24 25 27 29 32 34 35 37
60 65 70 75 78 82 70 66 65 66 60 52 52 51 53 58 62 59 54 54 52 48 43 38 33 30 26 23 20 19 22 27 31 31 29 26 25 27 29 31 34 36 38 39
65 69 74 77 79 76 62 60 59 59 53 48 48 53 59 65 69 64 54 50 47 46 43 38 34 32 29 26 23 22 25 27 29 29 28 27 27 28 30 34 37 39 41 42
69 72 76 77 74 64 56 55 54 53 51 45 50 57 62 65 64 61 54 46 41 39 38 34 31 29 28 26 25 24 25 28 30 29 28 27 27 29 32 37 40 41 42 42
70 73 75 74 67 56 53 51 49 48 46 48 52 57 61 62 59 55 49 42 35 33 32 30 27 25 23 22 23 24 25 27 28 28 28 27 28 30 33 37 39 41 43 45
68 71 71 67 57 51 47 44 43 42 42 45 50 54 58 58 54 50 42 32 25 24 25 25 23 22 21 21 23 25 26 26 27 27 27 27 30 32 35 37 39 40 41 43
67 69 65 58 51 48 42 38 36 36 38 42 46 48 51 52 49 44 36 26 18 14 17 19 21 23 25 26 27 28 28 28 28 28 29 30 33 35 37 40 42 43 43 42
65 65 58 51 47 41 35 33 30 30 34 39 41 42 44 45 44 41 35 27 19 14 13 16 21 25 29 30 30 29 29 30 31 31 32 34 35 38 40 43 44 44 43 41
61 56 50 45 41 38 34 31 28 30 33 36 37 37 39 39 39 37 35 30 24 19 17 17 19 22 25 26 27 26 27 29 32 34 35 36 38 41 43 44 44 44 42 41
Wind_Direction
287 284 283 282 280 277 273 270 270 274 276 278 282 287 289 290 291 294 294 294 294 294 293 293 293 292 291 289 289 288 288 289 289 289 288 287 285 284 282 280 280 278 274 270
285 284 283 283 281 279 276 273 274 277 283 286 287 291 296 295 294 295 295 295 295 295 295 294 294 293 292 290 289 289 288 289 288 288 286 285 282 279 278 277 277 276 270 266
286 285 284 284 284 282 280 280 281 284 286 293 296 296 298 296 297 298 297 297 296 297 296 295 295 294 292 291 289 290 290 289 288 286 283 281 280 279 277 276 274 271 266 262
290 289 287 286 286 285 286 288 293 298 300 302 302 301 300 300 301 299 298 297 297 298 297 296 296 295 293 292 291 291 290 288 286 282 279 278 279 279 278 276 272 266 262 260
293 291 288 287 289 292 294 298 301 303 303 304 302 301 301 302 300 299 299 299 300 300 299 299 299 299 297 295 292 290 288 285 283 280 278 277 278 279 280 278 273 267 262 258
292 289 289 292 297 300 300 301 302 302 301 301 301 302 303 303 301 301 302 304 304 303 303 303 303 302 300 295 290 287 284 283 281 279 278 278 278 278 281 279 273 272 269 263
294 293 294 296 299 299 300 301 301 301 300 302 303 303 305 304 304 304 305 305 304 304 304 304 304 302 297 290 285 281 279 278 277 277 277 278 279 279 281 278 274 274 270 262
297 294 294 294 296 298 299 301 304 304 302 301 302 304 306 305 304 305 305 303 303 303 304 304 302 298 292 286 280 276 274 273 273 275 276 277 278 279 281 280 277 275 267 258
302 299 297 296 298 301 302 304 305 305 304 302 302 303 304 305 307 307 305 303 303 303 302 301 298 294 288 282 276 272 270 269 270 273 276 277 279 280 282 284 281 271 258 252
305 303 302 303 303 303 305 307 308 309 308 307 306 307 307 307 307 304 303 302 301 301 300 298 295 290 283 277 273 271 271 271 270 271 273 276 279 281 284 284 278 266 255 253
307 306 307 308 307 306 308 309 309 309 309 309 308 306 307 307 304 303 302 301 300 300 299 297 292 286 283 281 277 276 276 276 273 272 272 276 279 280 281 281 273 262 255 254
308 307 308 309 308 308 310 310 310 310 310 308 307 305 307 305 304 302 300 300 300 299 297 295 289 283 279 277 276 277 279 280 277 275 275 279 276 275 277 277 269 259 254 255
308 309 310 309 308 310 310 310 309 310 308 308 306 307 308 305 302 299 299 300 300 298 294 289 283 275 270 268 270 276 279 279 278 277 278 273 268 269 272 271 264 258 255 255
308 309 310 308 309 309 308 308 309 310 308 307 306 306 306 304 300 300 302 302 301 298 293 288 283 275 267 264 266 273 279 279 278 275 268 263 265 269 271 267 262 260 258 256
310 309 308 308 309 308 308 308 309 308 307 306 307 306 307 304 304 306 307 306 304 300 295 291 288 282 271 264 263 268 277 277 273 264 259 262 269 273 271 266 261 259 258 257
309 308 307 307 307 308 308 309 310 309 308 307 307 308 308 307 307 309 309 309 307 303 299 296 294 289 277 268 265 268 276 272 265 260 261 268 276 277 272 266 261 259 259 260
309 309 308 308 309 310 311 314 312 311 312 313 312 312 312 310 309 311 311 309 305 303 302 300 299 295 287 275 266 266 271 267 262 262 266 273 277 276 274 270 265 263 264 266
312 311 311 312 312 312 315 314 312 312 315 315 311 312 312 311 311 313 310 305 302 299 298 295 293 288 280 270 262 264 266 262 259 261 267 271 275 281 282 278 273 270 271 272
316 315 315 315 314 312 318 314 313 314 318 315 313 314 314 313 311 313 307 299 295 292 290 289 286 283 274 263 256 254 257 258 261 265 267 268 276 284 286 285 280 275 274 275
316 315 315 315 313 318 321 315 314 314 319 319 318 318 319 318 315 316 309 299 291 285 283 282 280 279 276 269 259 253 253 256 260 263 264 269 276 285 290 290 287 282 278 276
315 316 315 314 316 322 318 316 317 319 322 324 322 322 323 323 321 318 313 305 293 283 279 279 278 277 277 272 260 256 255 258 260 261 264 270 279 288 294 294 291 285 280 278
316 314 313 315 318 320 316 318 320 319 322 324 325 328 329 330 327 323 317 308 295 282 274 276 276 277 278 277 268 260 258 259 259 260 265 273 283 290 295 297 297 291 284 280
314 312 313 316 318 315 317 318 317 318 322 325 329 332 335 338 336 333 328 319 303 286 275 274 275 275 278 284 283 272 263 259 259 263 270 276 282 287 293 297 298 295 290 286
312 311 314 316 316 315 318 316 314 320 325 328 330 334 339 345 348 349 347 343 330 306 285 279 276 276 279 284 287 280 268 261 261 266 272 276 281 287 293 297 298 296 292 289
312 314 315 315 315 314 317 317 316 323 327 328 330 333 338 347 355 1 4 3 359 344 315 293 284 282 284 285 285 279 268 262 261 264 270 277 284 288 293 297 299 296 292 289
313 314 315 317 317 319 321 321 323 325 326 327 331 332 335 342 352 359 5 7 4 355 340 322 308 300 295 292 289 280 268 264 264 267 273 281 286 290 294 296 296 294 291 289
Height
5796 5795 5794 5792 5791 5790 5789 5788 5787 5786 5783 5783 5782 5781 5780 5777 5773 5770 5767 5764 5760 5756 5751 5747 5743 5739 5734 5729 5726 5722 5717 5714 5711 5708 5704 5700 5697 5695 5694 5693 5691 5690 5689 5688
5792 5790 5788 5787 5786 5785 5783 5782 5782 5781 5778 5777 5777 5775 5773 5769 5765 5762 5758 5754 5750 5745 5740 5735 5731 5726 5720 5715 5711 5707 5703 5699 5696 5693 5689 5686 5684 5682 5681 5680 5679 5678 5676 5675
5787 5786 5783 5782 5781 5780 5779 5778 5777 5776 5775 5772 5770 5769 5766 5760 5756 5751 5746 5741 5737 5732 5727 5721 5716 5710 5704 5699 5695 5691 5687 5684 5681 5678 5675 5672 5670 5669 5668 5667 5665 5664 5663 5663
5783 5781 5780 5778 5777 5776 5775 5773 5772 5770 5767 5766 5764 5759 5758 5750 5744 5737 5732 5727 5722 5718 5712 5706 5701 5695 5690 5685 5680 5676 5672 5669 5665 5663 5660 5658 5656 5655 5653 5652 5651 5650 5650 5650
5778 5777 5776 5775 5773 5772 5770 5769 5766 5764 5760 5758 5754 5750 5748 5738 5730 5723 5717 5712 5707 5703 5697 5691 5686 5681 5676 5670 5665 5661 5656 5653 5650 5647 5646 5644 5643 5641 5639 5637 5636 5636 5635 5636
5775 5773 5772 5771 5769 5767 5764 5762 5759 5755 5752 5749 5743 5738 5735 5725 5716 5709 5703 5698 5692 5687 5682 5676 5670 5665 5660 5654 5649 5644 5640 5637 5635 5632 5631 5630 5629 5628 5626 5625 5624 5623 5623 5623
5772 5771 5769 5767 5764 5761 5757 5753 5748 5744 5740 5736 5730 5725 5721 5710 5701 5694 5689 5683 5676 5671 5666 5661 5655 5650 5644 5639 5633 5629 5626 5623 5621 5619 5617 5616 5615 5614 5613 5612 5611 5611 5611 5611
5768 5767 5764 5761 5757 5753 5747 5742 5737 5731 5726 5723 5719 5711 5707 5696 5687 5680 5674 5667 5661 5655 5650 5644 5638 5633 5628 5624 5619 5615 5612 5610 5608 5606 5604 5603 5602 5601 5600 5599 5598 5597 5598 5599
5763 5762 5759 5754 5749 5744 5737 5730 5723 5717 5711 5707 5706 5700 5693 5680 5672 5665 5657 5649 5643 5637 5631 5626 5621 5616 5612 5608 5604 5600 5598 5596 5594 5593 5591 5590 5589 5588 5587 5586 5585 5584 5584 5587
5756 5754 5751 5746 5739 5733 5726 5718 5710 5701 5693 5689 5689 5686 5675 5664 5656 5648 5639 5632 5625 5619 5612 5607 5603 5599 5595 5592 5588 5585 5583 5582 5581 5579 5578 5577 5576 5574 5573 5573 5572 5572 5573 5575
5748 5745 5742 5735 5727 5720 5714 5706 5696 5688 5680 5671 5667 5675 5661 5648 5637 5629 5621 5612 5604 5599 5593 5587 5584 5581 5578 5576 5573 5571 5569 5568 5567 5566 5564 5563 5562 5561 5560 5560 5560 5560 5562 5564
5740 5736 5732 5725 5715 5707 5700 5691 5682 5676 5669 5658 5644 5649 5646 5632 5619 5607 5598 5591 5585 5580 5575 5570 5566 5563 5562 5560 5559 5557 5555 5554 5552 5551 5550 5550 5549 5548 5548 5548 5548 5549 5550 5553
5731 5726 5721 5715 5706 5697 5688 5679 5670 5662 5654 5644 5629 5621 5622 5609 5599 5589 5580 5574 5567 5562 5557 5553 5550 5547 5546 5545 5544 5543 5541 5540 5538 5537 5536 5536 5535 5535 5535 5535 5536 5537 5539 5541
5721 5717 5711 5704 5694 5684 5677 5669 5660 5649 5637 5626 5616 5603 5599 5586 5574 5570 5566 5558 5551 5545 5540 5535 5531 5529 5528 5528 5529 5529 5528 5527 5526 5525 5524 5523 5523 5524 5524 5525 5526 5527 5528 5530
5710 5706 5700 5692 5683 5673 5664 5656 5649 5638 5622 5609 5599 5588 5578 5566 5557 5552 5547 5541 5536 5530 5524 5519 5514 5511 5510 5511 5514 5516 5515 5514 5514 5513 5513 5513 5513 5514 5514 5515 5516 5517 5518 5519
5699 5694 5689 5684 5674 5663 5652 5642 5633 5621 5609 5595 5582 5573 5563 5552 5544 5538 5532 5525 5520 5515 5510 5505 5500 5497 5497 5498 5500 5503 5503 5503 5503 5503 5503 5504 5504 5504 5504 5504 5505 5507 5508 5509
5687 5680 5674 5669 5661 5651 5636 5623 5613 5605 5594 5579 5564 5556 5547 5539 5531 5526 5519 5512 5506 5502 5498 5494 5490 5487 5486 5486 5488 5490 5491 5491 5492 5493 5493 5494 5494 5494 5494 5494 5495 5496 5497 5498
5675 5667 5659 5652 5646 5635 5625 5606 5593 5585 5582 5568 5553 5545 5537 5527 5519 5516 5508 5497 5492 5490 5487 5483 5480 5478 5478 5477 5476 5477 5479 5480 5481 5482 5484 5485 5485 5485 5484 5484 5484 5485 5486 5486
5661 5652 5642 5633 5623 5615 5610 5592 5579 5569 5570 5558 5545 5536 5527 5516 5506 5506 5498 5484 5478 5475 5474 5472 5470 5469 5468 5468 5467 5468 5469 5470 5471 5473 5474 5475 5476 5476 5475 5475 5475 5475 5474 5474
5648 5638 5629 5615 5601 5595 5591 5578 5566 5556 5555 5548 5535 5525 5515 5502 5487 5482 5477 5468 5462 5460 5459 5460 5459 5459 5459 5459 5459 5459 5459 5461 5462 5464 5465 5466 5466 5466 5465 5464 5463 5462 5462 5461
5634 5624 5614 5600 5588 5582 5572 5562 5553 5546 5541 5535 5526 5515 5503 5490 5475 5462 5455 5449 5446 5445 5446 5448 5449 5449 5450 5450 5450 5451 5452 5453 5454 5456 5456 5457 5456 5456 5454 5453 5452 5450 5449 5448
5620 5610 5600 5590 5582 5576 5561 5552 5545 5538 5531 5524 5516 5506 5492 5479 5464 5451 5440 5432 5430 5431 5434 5437 5440 5441 5442 5442 5442 5443 5444 5445 5446 5446 5447 5447 5446 5445 5444 5442 5440 5438 5436 5435
5607 5596 5586 5579 5574 5563 5555 5546 5538 5531 5525 5517 5509 5498 5485 5471 5456 5441 5430 5423 5421 5423 5426 5430 5433 5435 5436 5435 5435 5435 5435 5436 5437 5437 5437 5437 5437 5436 5434 5432 5429 5427 5424 5421
5593 5583 5575 5569 5563 5554 5548 5540 5533 5526 5518 5511 5503 5493 5482 5468 5453 5439 5428 5422 5420 5421 5423 5426 5429 5430 5430 5429 5428 5427 5426 5427 5428 5428 5428 5428 5427 5425 5423 5420 5417 5414 5410 5407
5578 5569 5564 5559 5551 5546 5540 5533 5526 5520 5513 5506 5499 5490 5480 5469 5457 5444 5434 5427 5424 5424 5424 5425 5425 5424 5423 5421 5420 5418 5418 5418 5419 5419 5419 5418 5416 5414 5411 5408 5404 5401 5397 5393
5568 5561 5554 5549 5542 5535 5529 5523 5518 5513 5507 5501 5494 5487 5478 5469 5460 5450 5441 5434 5429 5426 5424 5422 5420 5418 5416 5413 5411 5410 5410 5410 5411 5410 5409 5407 5405 5402 5399 5395 5392 5388 5384 5381